Guymon, OK

10:17 AM CST on January 16, 2017 (GMT -0600)
Guymon Municipal

Weather History for KGUY - November, 2013

Change the Weather History Date:

Friday, November 8, 2013

  Actual Average Record
Temperature  
Mean Temperature 57 °F 49 °F  
Max Temperature 74 °F 64 °F 88 °F (2006)
Min Temperature 40 °F 34 °F 21 °F (2000)
Degree Days  
Heating Degree Days 8 16  
Month to date heating degree days 118 118  
Since 1 July heating degree days 389 427  
Cooling Degree Days 0 0  
Month to date cooling degree days 0 0  
Year to date cooling degree days 1846 1481  
Growing Degree Days 7 (Base 50)    
Moisture  
Dew Point 26 °F    
Average Humidity 40    
Maximum Humidity 65    
Minimum Humidity 15    
Precipitation  
Precipitation 0.00 in 0.02 in 0.46 in (2011)
Month to date precipitation 0.18 0.17  
Year to date precipitation 14.50 18.30  
Snow  
Snow 0.00 in - - ()
Month to date snowfall 0.0  
Since 1 July snowfall T  
Since 1 September snowfall T  
Snow Depth 0.00 in    
Sea Level Pressure  
Sea Level Pressure 29.88 in    
Wind  
Wind Speed 19 mph (SSW)    
Max Wind Speed 37 mph    
Max Gust Speed 46 mph    
Visibility 10 miles    
Events      
T = Trace of Precipitation, MM = Missing Value Source: NWS Daily Summary

Daily Weather History Graph

Daily Weather History Graph

Search for Another Location

Airport or City:

Trip Planner

Search our weather history database for the weather conditions in past years. The results will help you decide how hot, cold, wet, or windy it might be!

Date:

Astronomy

Nov. 08, 2013 Rise Set
Actual Time 7:17 AM CST 5:42 PM CST
Civil Twilight 6:49 AM CST 6:09 PM CST
Nautical Twilight 6:18 AM CST 6:40 PM CST
Astronomical Twilight 5:48 AM CST 7:10 PM CST
Moon 12:14 PM CST (11/8) 11:04 PM CST (11/8)
Length of Visible Light 11h 19m
Length of Day
10h 25m
Waxing Crescent, 33% of the Moon is Illuminated
Nov 8
Waxing Crescent
Nov 9
First Quarter
Nov 17
Full
Nov 25
Last Quarter
Dec 2
New

Hourly Weather History & Observations

Time (CST) Temp. Windchill Dew Point Humidity Pressure Visibility Wind Dir Wind Speed Gust Speed Precip Events Conditions
12:53 AM 46.9 °F - 23.0 °F 39% 30.11 in 10.0 mi SSW 16.1 mph - N/A   Clear
1:53 AM 46.0 °F 38.5 °F 23.0 °F 40% 30.08 in 10.0 mi SSW 19.6 mph - N/A   Clear
2:53 AM 45.0 °F 38.9 °F 23.0 °F 42% 30.06 in 10.0 mi SSW 12.7 mph - N/A   Clear
3:53 AM 45.0 °F 37.4 °F 23.0 °F 42% 30.02 in 10.0 mi SSW 18.4 mph - N/A   Clear
4:53 AM 45.0 °F 36.0 °F 21.9 °F 40% 29.99 in 10.0 mi SSW 25.3 mph 32.2 mph N/A   Clear
5:53 AM 43.0 °F 33.8 °F 23.0 °F 45% 29.99 in 10.0 mi SSW 23.0 mph 32.2 mph N/A   Clear
6:53 AM 41.0 °F 31.9 °F 23.0 °F 49% 30.00 in 10.0 mi SSW 19.6 mph 28.8 mph N/A   Clear
7:53 AM 43.0 °F 35.4 °F 23.0 °F 45% 29.99 in 10.0 mi SSW 16.1 mph 21.9 mph N/A   Clear
8:53 AM 50.0 °F - 23.0 °F 35% 29.95 in 10.0 mi SSW 21.9 mph 32.2 mph N/A   Clear
9:53 AM 55.9 °F - 23.0 °F 28% 29.90 in 10.0 mi SSW 33.4 mph 42.6 mph N/A   Clear
10:53 AM 61.0 °F - 24.1 °F 24% 29.88 in 10.0 mi SW 28.8 mph 41.4 mph N/A   Clear
11:53 AM 66.0 °F - 23.0 °F 20% 29.84 in 10.0 mi SW 33.4 mph 46.0 mph N/A   Clear
12:53 PM 69.1 °F - 23.0 °F 18% 29.80 in 10.0 mi SSW 25.3 mph 41.4 mph N/A   Clear
1:53 PM 73.0 °F - 23.0 °F 15% 29.75 in 10.0 mi SSW 28.8 mph 39.1 mph N/A   Clear
2:53 PM 73.0 °F - 25.0 °F 17% 29.74 in 10.0 mi SSW 34.5 mph 41.4 mph N/A   Clear
3:53 PM 73.0 °F - 26.1 °F 17% 29.73 in 10.0 mi SSW 28.8 mph 38.0 mph N/A   Clear
4:53 PM 71.1 °F - 26.1 °F 19% 29.74 in 10.0 mi SSW 21.9 mph 29.9 mph N/A   Clear
5:53 PM 64.9 °F - 27.0 °F 24% 29.77 in 10.0 mi SSW 13.8 mph - N/A   Clear
6:53 PM 57.9 °F - 28.9 °F 33% 29.79 in 10.0 mi SSW 10.4 mph - N/A   Clear
7:53 PM 54.0 °F - 30.9 °F 41% 29.81 in 10.0 mi South 9.2 mph - N/A   Clear
8:53 PM 51.1 °F - 33.1 °F 50% 29.81 in 10.0 mi South 10.4 mph - N/A   Clear
9:53 PM 48.0 °F - 34.0 °F 58% 29.82 in 10.0 mi SSW 5.8 mph - N/A   Clear
10:53 PM 44.1 °F 41.5 °F 33.1 °F 65% 29.82 in 10.0 mi SSW 4.6 mph - N/A   Clear
11:53 PM 43.0 °F - 33.1 °F 68% 29.83 in 10.0 mi Calm Calm - N/A   Clear